This demonstration page uses our WeatherBlox Daily Observations layout. Learn more.

Left ArrowRight Arrow

Hourly Observations for May 10, 2021

Temp ( °F °C ) Dew Point ( °F °C ) Humidity (%) Winds ( mph kmh ) Pressure ( in mb ) Visibility ( mi km ) Precip ( " mm )
12:53 am 00:53 Mostly Clear 67 19.4 64 17.8 91 91 Calm 29.94 1014 10 16 0.00 0.00
1:49 am 01:49 Cloudy with Strong Thunderstorms 63 17 61 16 94 94 WNW 8 13 30.02 1017 3 4 0.22 5.59
1:53 am 01:53 Cloudy with Strong Thunderstorms 63 17.2 61 16.1 93 93 WNW 9 15 30.02 1017 3 4 0.26 6.60
2:01 am 02:01 Cloudy with Thunderstorms 63 17.2 61 16.1 93 93 NNW 5 7 30.02 1016 4 6 0.02 0.51
2:21 am 02:21 Cloudy with Light Rain 63 17.2 61 16.1 93 93 ENE 3 6 30.00 1016 10 16 0.05 1.27
2:53 am 02:53 Cloudy with Rain 63 17.2 61 16.1 93 93 SSE 8 13 29.96 1014 6 10 0.11 2.79
3:53 am 03:53 Cloudy with Light Rain 62 16.7 62 16.7 100 100 Calm 29.95 1014 10 16 0.10 2.54
4:53 am 04:53 Cloudy with Rain 63 17.2 62 16.7 97 97 SSW 7 11 29.96 1014 5 8 0.15 3.81
5:53 am 05:53 Mostly Cloudy 63 17.2 62 16.7 97 97 S 7 11 29.92 1013 10 16 0.03 0.76
6:53 am 06:53 Cloudy with Light Rain 63 17.2 61 16.1 93 93 WSW 6 9 29.93 1014 9 14 0.03 0.76
7:09 am 07:09 Cloudy with Light Rain 63 17.2 62 16.7 97 97 NNW 7 11 29.96 1014 10 16 0.01 0.25
7:18 am 07:18 Cloudy with Light Rain 63 17.2 62 16.7 97 97 Calm 29.96 1014 10 16 0.01 0.25
7:50 am 07:50 Cloudy with Light Rain 63 17 63 17 100 100 Calm 29.98 1015 10 16 0.02 0.51
7:53 am 07:53 Cloudy with Light Rain 64 17.8 63 17.2 96 96 Calm 29.97 1015 10 16 0.02 0.51
8:37 am 08:37 Cloudy 64 17.8 62 16.7 93 93 WSW 3 6 29.98 1015 10 16 0.00 0.00
8:53 am 08:53 Cloudy with Light Rain 65 18.3 63 17.2 93 93 WSW 3 6 29.97 1015 10 16 0.00 0.00
9:53 am 09:53 Cloudy 66 18.9 62 16.7 87 87 WSW 5 7 29.96 1015 10 16 0.00 0.00
10:53 am 10:53 Cloudy 67 19.4 62 16.7 84 84 SW 7 11 29.98 1015 10 16 0.00 0.00
11:00 am 11:00 Mostly Cloudy 67 19.4 62 16.7 84 84 SW 7 11 29.99 1016 10 16 0.00 0.00
11:45 am 11:45 Mostly Cloudy 69 20.6 62 16.7 78 78 WSW 6 9 29.99 1015 10 16 0.00 0.00
11:53 am 11:53 Mostly Cloudy 69 20.6 62 16.7 78 78 WSW 6 9 30.00 1016 10 16 0.00 0.00
12:53 pm 12:53 Cloudy 71 21.7 63 17.2 76 76 VRB 6 9 29.99 1016 10 16 0.00 0.00
1:53 pm 13:53 Cloudy 73 22.8 62 16.7 69 69 W 6 9 29.98 1015 10 16 0.00 0.00
2:53 pm 14:53 Cloudy 75 23.9 62 16.7 64 64 WNW 12 19 29.98 1015 10 16 0.00 0.00
3:53 pm 15:53 Mostly Cloudy 74 23.3 62 16.7 67 67 WNW 13 20 29.98 1015 10 16 0.00 0.00
4:53 pm 16:53 Mostly Cloudy 74 23.3 63 17.2 69 69 NW 8 13 29.98 1015 10 16 0.00 0.00
5:53 pm 17:53 Partly Cloudy 74 23.3 62 16.7 67 67 WNW 7 11 29.97 1015 10 16 0.00 0.00
6:53 pm 18:53 Mostly Cloudy 73 22.8 62 16.7 69 69 WNW 7 11 29.98 1015 10 16 0.00 0.00
7:53 pm 19:53 Mostly Cloudy 72 22.2 62 16.7 71 71 WNW 5 7 29.99 1016 10 16 0.00 0.00
8:53 pm 20:53 Clear 68 20 62 16.7 81 81 Calm 30.01 1016 10 16 0.00 0.00
9:53 pm 21:53 Clear 67 19.4 61 16.1 81 81 Calm 30.01 1016 10 16 0.00 0.00
10:53 pm 22:53 Clear 64 17.8 61 16.1 90 90 Calm 30.03 1017 10 16 0.00 0.00
11:53 pm 23:53 Clear 63 17.2 61 16.1 93 93 Calm 30.03 1017 10 16 0.00 0.00

Powered by AerisWeather